Simultaneous Nadir Overpasses (SNOs) Predictions

Prediction of SNOs between AQUA and LANDSAT-8 Satellite Orbit:

Table of predicted SNOs for the next 14.0 days since TLE Epoch: 6/14/2025
Index Date (AQUA) Time (AQUA) Lat,Lon (AQUA) SZA (AQUA ) Date (LANDSAT-8) Time (LANDSAT-8) Lat,Lon (LANDSAT-8) SZA (LANDSAT-8 ) Distance(km) Time Diff (sec)
1 06/19/2025 07:10:02 -74.85, -99.36 128.50 06/19/2025 07:08:57 -74.85,-102.19 128.61 82.02 65
2 06/19/2025 07:59:26 75.12, 67.58 51.74 06/19/2025 07:58:17 75.12, 66.18 51.69 39.97 69
3 06/19/2025 08:48:49 -75.40,-125.52 128.01 06/19/2025 08:47:39 -75.40,-125.41 128.01 2.92 70
4 06/19/2025 09:38:07 75.37, 42.23 51.97 06/19/2025 09:37:05 75.38, 42.16 51.96 2.25 62
5 06/19/2025 10:27:25 -75.40,-150.16 128.01 06/19/2025 10:26:32 -75.41,-150.12 128.01 1.83 53
6 06/19/2025 11:16:44 75.42, 17.45 52.01 06/19/2025 11:15:58 75.38, 17.45 51.97 4.03 46
7 06/19/2025 12:06:01 -75.40,-174.81 128.02 06/19/2025 12:05:25 -75.42,-174.82 128.00 2.21 36
8 06/19/2025 12:55:20 75.42, -7.20 52.01 06/19/2025 12:54:50 75.44, -7.11 52.03 3.36 30
9 06/19/2025 13:44:38 -75.45, 160.41 127.97 06/19/2025 13:44:18 -75.42, 160.47 128.00 3.16 20
10 06/19/2025 14:33:56 75.42, -31.84 52.01 06/19/2025 14:33:43 75.45, -31.81 52.03 3.13 13
11 06/19/2025 15:23:14 -75.44, 135.76 127.97 06/19/2025 15:23:11 -75.43, 135.77 127.99 1.81 3
12 06/19/2025 16:12:33 75.47, -56.63 52.05 06/19/2025 16:12:36 75.45, -56.52 52.04 3.63 3
13 06/19/2025 17:01:50 -75.44, 111.12 127.98 06/19/2025 17:02:04 -75.43, 111.06 127.99 1.79 14
14 06/19/2025 17:51:09 75.47, -81.28 52.05 06/19/2025 17:51:29 75.46, -81.22 52.04 1.83 20
15 06/19/2025 18:40:26 -75.44, 86.47 127.98 06/19/2025 18:40:57 -75.44, 86.36 127.98 3.13 31
16 06/19/2025 19:29:45 75.47,-105.92 52.05 06/19/2025 19:30:22 75.46,-105.93 52.05 0.31 37
17 06/19/2025 20:19:03 -75.49, 61.68 127.93 06/19/2025 20:19:49 -75.50, 61.79 127.92 3.18 46
18 06/19/2025 21:08:21 75.47,-130.57 52.05 06/19/2025 21:09:15 75.47,-130.63 52.06 1.81 54
19 06/19/2025 21:57:39 -75.49, 37.04 127.94 06/19/2025 21:58:42 -75.50, 37.09 127.91 1.95 63
20 06/19/2025 22:46:57 75.47,-155.22 52.05 06/19/2025 22:48:08 75.48,-155.34 52.06 3.59 71
21 06/19/2025 23:36:21 -75.78, 11.51 127.67 06/19/2025 23:37:30 -75.75, 13.10 127.64 43.59 69
22 06/20/2025 00:25:46 76.10, 178.19 52.63 06/20/2025 00:26:49 76.07,-178.28 52.72 94.48 63



Historial Predications of SNOs between AQUA and LANDSAT-8
